Regional Weather Roundup
Issued by NWS

Home | Current Version | Previous Version | Graphics & Text | Print | Product List | Glossary On
Versions: 1 2 3 4 5 6 7 8 9 10 11 12 13 14 15 16 17 18 19 20 21 22 23 24 25 26 27 28 29 30 31 32 33 34 35 36 37 38 39 40 41 42 43 44 45 46 47 48 49 50
169
ASUS45 KBOU 250907
RWRCO

WEATHER ROUNDUP FOR COLORADO
NATIONAL WEATHER SERVICE DENVER/BOULDER CO
300 AM MDT MON JUL 25 2016

NOTE: "FAIR" INDICATES FEW OR NO CLOUDS BELOW 12000 FEET WITH NO
SIGNIFICANT WEATHER AND/OR OBSTRUCTIONS TO VISIBILITY.

COZ001>005-013-030-031-251000-
...NORTHWEST COLORADO...

CITY           SKY/WX    TMP DP  RH WIND       PRES   REMARKS
CRAIG          FAIR      48  40  73 CALM      30.25R
HAYDEN         FAIR      57  39  51 E10       30.27S
MEEKER         FAIR      52  41  66 E5        30.27R
MOUNT WERNER   NOT AVBL
STEAMBOAT SPGS FAIR      51  41  68 CALM      30.30S
WALDEN         FAIR      43  34  70 E5        30.42R
$$

COZ006>008-011-251000-
...WEST CENTRAL VALLEYS...

CITY           SKY/WX    TMP DP  RH WIND       PRES   REMARKS
GRAND JUNCTION FAIR      74  40  29 SE9       30.09S
MONTROSE       FAIR      65  41  41 SE9       30.23R
EAGLE          FAIR      54  41  62 E5        30.34S
RIFLE          FAIR      62  40  44 E3        30.19S
DELTA          FAIR      69  40  35 E7        30.18R
NUCLA          NOT AVBL
$$

COZ017>023-064>068-251000-
...SOUTHWEST COLORADO...

CITY           SKY/WX    TMP DP  RH WIND       PRES   REMARKS
DURANGO        FAIR      60  46  59 N7        30.32S
CORTEZ         FAIR      68  48  48 CALM      30.24R
PAGOSA SPRINGS FAIR      57  41  54 CALM      30.41F
TELLURIDE      FAIR      59  37  44 SE5       30.51S
WOLF CREEK PAS FAIR      46  39  76 SW15      30.74F
$$

COZ009-010-012-014-032>034-037-058>063-251000-
...CENTRAL COLORADO...

CITY           SKY/WX    TMP DP  RH WIND       PRES   REMARKS
ASPEN          FAIR      49  39  68 VRB3      30.38R
BUENA VISTA    FAIR      50  44  81 CALM      30.45R
COPPER MTN     FAIR      54  34  47 S15       30.72S
BERTHOUD PASS  FAIR      45  32  61 W8        30.74S
COTTONWOOD PAS FAIR      59  39  47 W3        30.58S
GUNNISON       NOT AVBL
KREMMLING      FAIR      46  43  87 CALM      30.41S
LEADVILLE      FAIR      46  36  68 E6        30.57S
SALIDA         FAIR      60  48  66 NW3       30.49R
SUNLIGHT       FAIR      59  32  36 CALM      30.63S
WILKERSON PASS FAIR      48  39  71 W6        30.69S
$$

COZ069>075-251000-
...SAN LUIS VALLEY/SANGRE DE CRISTO MOUNTAINS...

CITY           SKY/WX    TMP DP  RH WIND       PRES   REMARKS
ALAMOSA        FAIR      56  48  74 SE9       30.37R
LA VETA PASS   FAIR      52  45  76 CALM      30.58F
SAGUACHE       FAIR      54  45  71 N7        30.43R
$$

COZ035-036-038>040-251000-
...NORTHERN COLORADO FRONT RANGE...

CITY           SKY/WX    TMP DP  RH WIND       PRES   REMARKS
DENVER INTL AP FAIR      61  54  77 S13       30.24S
DMNS CITY PARK   N/A     62  56  80 S2        30.24S
AURORA         CLEAR     60  55  84 S9        30.26F
FRONT RANGE AP NOT AVBL
ERIE MUNI ARPT FAIR      58  55  88 CALM      30.22F
BOULDER MUN AP FAIR      61  55  82 CALM      30.22F
CENTENNIAL     FAIR      58  52  80 S6        30.27S
BROOMFIELD     FAIR      59  55  88 CALM      30.26S
LONGMONT       FAIR      59  55  88 CALM      30.24F
$$

COZ041-046-047-076>085-087-088-251000-
...PIKES PEAK/PALMER DIVIDE AND SOUTHERN FOOTHILLS...

CITY           SKY/WX    TMP DP  RH WIND       PRES   REMARKS
COLO. SPRINGS  FAIR      59  54  83 SE3       30.36S
A. F. ACADEMY  MOCLDY    56  53  89 S5        30.36S
SCHRIEVER AFB  NOT AVBL
ELLICOTT       FAIR     N/A N/A N/A W3        30.33S
FALCON         NOT AVBL
FORT CARSON    FAIR      59  56  89 S6        30.31F
LIMON          FAIR      57  54  89 SW8       30.28S
MONUMENT HILL  FAIR      52  50  93 S10       30.38S
TRINIDAD       NOT AVBL
$$

COZ042>045-048>051-090-091-251000-
...NORTHEAST COLORADO...

CITY           SKY/WX    TMP DP  RH WIND       PRES   REMARKS
GREELEY ARPT   FAIR      57  54  88 CALM      30.23S
AKRON          FAIR      62  53  72 SW8       30.21R
BURLINGTON     FAIR      61  57  87 SW5       30.18R
WRAY           NOT AVBL
STERLING       FAIR      57  55  94 CALM      30.19S
HOLYOKE          N/A     59  55  88 CALM      30.19R
FORT MORGAN    FAIR      58  55  89 W5        30.22S
$$

COZ086-089-092>099-251000-
...SOUTHEAST COLORADO...

CITY           SKY/WX    TMP DP  RH WIND       PRES   REMARKS
PUEBLO         FAIR      68  58  70 N6        30.26F
LA JUNTA       FAIR      64  61  90 N5        30.21F
LAMAR          FAIR      62  59  90 CALM      30.16F
SPRINGFIELD      N/A     62  57  83 N8        30.21R
$$




USA.gov is the U.S. government's official web portal to all federal, state and local government web resources and services.